Oxford, CT

12:39 AM EDT on May 27, 2018 (GMT -0400)
Waterbury-Oxford

Weather History for KOXC - March, 2012

Change the Weather History Date:

Wednesday, March 21, 2012

  Actual Average Record
Temperature  
Mean Temperature 60 °F -  
Max Temperature 68 °F 43 °F 68 °F (2012)
Min Temperature 53 °F 27 °F 17 °F (2007)
Degree Days  
Heating Degree Days 4    
Growing Degree Days 10 (Base 50)    
Moisture  
Dew Point 54 °F    
Average Humidity 86    
Maximum Humidity 94    
Minimum Humidity 64    
Precipitation  
Precipitation 0.00 in - - ()
Sea Level Pressure  
Sea Level Pressure 30.35 in    
Wind  
Wind Speed 2 mph (SW)    
Max Wind Speed 12 mph    
Max Gust Speed -    
Visibility 4 miles    
Events Fog    
Averages and records for this station are not official NWS values.
T = Trace of Precipitation, MM = Missing Value Source: NWS Daily Summary

Daily Weather History Graph

Daily Weather History Graph

Search for Another Location

Airport or City:

Astronomy

Mar. 21, 2012 Rise Set
Actual Time 6:53 AM EDT 7:06 PM EDT
Civil Twilight 6:25 AM EDT 7:34 PM EDT
Nautical Twilight 5:53 AM EDT 8:06 PM EDT
Astronomical Twilight 5:20 AM EDT 8:39 PM EDT
Moon 6:03 AM EDT (3/21) 6:30 PM EDT (3/21)
Length of Visible Light 13h 08m
Length of Day
12h 12m
Waning Crescent, 1% of the Moon is Illuminated
Mar 21
Waning Crescent
Mar 22
New
Mar 30
First Quarter
Apr 6
Full
Apr 13
Last Quarter

Hourly Weather History & Observations

Time (EDT) Temp. Dew Point Humidity Pressure Visibility Wind Dir Wind Speed Gust Speed Precip Events Conditions
12:15 AM 53.6 °F 50.0 °F 88% 30.36 in 5.0 mi Calm Calm - N/A   Clear
12:35 AM 55.4 °F 51.8 °F 88% 30.36 in 3.0 mi Calm Calm - N/A   Partly Cloudy
12:55 AM 53.6 °F 51.8 °F 94% 30.36 in 0.8 mi Calm Calm - N/A   Overcast
1:35 AM 55.4 °F 53.6 °F 94% 30.36 in 0.2 mi SSW 3.5 mph - N/A   Overcast
1:55 AM 55.4 °F 53.6 °F 94% 30.36 in 0.2 mi Calm Calm - N/A   Overcast
2:15 AM 55.4 °F 51.8 °F 88% 30.36 in 0.2 mi Calm Calm - N/A   Overcast
2:55 AM 55.4 °F 51.8 °F 88% 30.36 in 0.2 mi Calm Calm - N/A   Overcast
3:35 AM 55.4 °F 51.8 °F 88% 30.35 in 0.2 mi Calm Calm - N/A   Overcast
3:55 AM 53.6 °F 51.8 °F 94% 30.35 in 0.2 mi Calm Calm - N/A   Overcast
4:15 AM 53.6 °F 51.8 °F 94% 30.34 in 0.2 mi Calm Calm - N/A   Overcast
4:35 AM 53.6 °F 51.8 °F 94% 30.34 in 0.2 mi Calm Calm - N/A   Overcast
4:55 AM 55.4 °F 51.8 °F 88% 30.34 in 0.5 mi Calm Calm - N/A   Overcast
5:15 AM 55.4 °F 53.6 °F 94% 30.34 in 1.8 mi Calm Calm - N/A   Overcast
5:35 AM 55.4 °F 53.6 °F 94% 30.34 in 3.0 mi Calm Calm - N/A   Overcast
5:45 AM 55.4 °F 53.6 °F 94% 30.35 in 2.0 mi Calm Calm - N/A   Overcast
6:45 AM 55.4 °F 53.6 °F 94% 30.35 in 0.8 mi Calm Calm - N/A   Overcast
7:45 AM 57.2 °F 53.6 °F 88% 30.37 in 0.5 mi Calm Calm - N/A Fog Fog
8:50 AM 57.2 °F 55.4 °F 94% 30.39 in 1.0 mi NNE 4.6 mph - N/A   Overcast
9:45 AM 57.2 °F 55.4 °F 94% 30.40 in 2.0 mi NNW 3.5 mph - N/A   Overcast
10:45 AM 59.0 °F 55.4 °F 88% 30.40 in 1.5 mi North 3.5 mph - N/A   Overcast
11:45 AM 60.8 °F 57.2 °F 88% 30.39 in 3.0 mi SSW 4.6 mph - N/A   Overcast
12:12 PM 62.6 °F 55.4 °F 77% 30.39 in 5.0 mi SW 4.6 mph - N/A   Overcast
12:55 PM 62.6 °F 55.4 °F 77% 30.38 in 10.0 mi West 5.8 mph - N/A   Overcast
1:45 PM 66.2 °F 57.2 °F 73% 30.36 in 10.0 mi SW 4.6 mph - N/A   Overcast
2:45 PM 68.0 °F 55.4 °F 64% 30.33 in 10.0 mi WSW 5.8 mph - N/A   Overcast
3:45 PM 68.0 °F 55.4 °F 64% 30.32 in 10.0 mi South 6.9 mph - N/A   Overcast
4:45 PM 68.0 °F 55.4 °F 64% 30.30 in 10.0 mi South 11.5 mph - N/A   Mostly Cloudy
5:45 PM 66.2 °F 55.4 °F 68% 30.30 in 10.0 mi SW 6.9 mph - N/A   Mostly Cloudy
6:45 PM 64.4 °F 55.4 °F 73% 30.31 in 10.0 mi SSW 9.2 mph - N/A   Mostly Cloudy
7:45 PM 62.6 °F 55.4 °F 77% 30.32 in 10.0 mi SW 5.8 mph - N/A   Overcast
8:55 PM 60.8 °F 55.4 °F 82% 30.32 in 10.0 mi SSW 5.8 mph - N/A   Scattered Clouds
9:35 PM 59.0 °F 55.4 °F 88% 30.32 in 10.0 mi Calm Calm - N/A   Clear
9:55 PM 57.2 °F 53.6 °F 88% 30.32 in 10.0 mi SW 3.5 mph - N/A   Clear
10:15 PM 57.2 °F 53.6 °F 88% 30.32 in 8.0 mi SW 4.6 mph - N/A   Partly Cloudy
10:35 PM 57.2 °F 53.6 °F 88% 30.32 in 7.0 mi SSW 5.8 mph - N/A   Mostly Cloudy
10:55 PM 57.2 °F 53.6 °F 88% 30.32 in 6.0 mi SW 3.5 mph - N/A   Overcast
11:15 PM 57.2 °F 53.6 °F 88% 30.32 in 5.0 mi SW 5.8 mph - N/A   Overcast
11:35 PM 57.2 °F 53.6 °F 88% 30.32 in 4.0 mi WSW 4.6 mph - N/A   Overcast